Temp
12 12 12 12 13 13 13 13 14 14 14 14 14 15 15 15 15 15 17 19 20 19 19 20 22 23 24 24 25 25 22 23 24 25 26 26 26 26 26 25 26 25 25 24 21
11 12 12 12 12 13 13 13 13 14 14 14 14 14 14 14 14 16 17 18 18 19 19 21 22 23 23 24 24 23 22 24 26 26 24 25 26 25 26 25 25 25 23 22 20
11 11 12 12 12 12 12 13 13 13 14 14 14 14 15 14 15 17 18 18 18 18 18 20 21 22 21 22 23 24 22 24 25 25 24 24 24 26 24 24 25 25 24 22 20
11 10 11 12 12 12 12 12 13 13 13 13 14 14 14 14 15 17 18 18 18 18 18 20 21 20 21 21 23 21 23 24 24 23 23 23 24 24 24 23 26 25 24 23 19
10 10 10 11 12 12 12 12 12 13 13 13 13 13 13 14 16 17 18 17 17 17 18 20 20 20 20 22 22 22 22 23 24 23 23 22 22 22 22 24 24 26 24 23 20
10 10 10 11 11 11 12 12 12 13 13 13 13 13 13 14 18 18 17 17 16 16 18 20 20 21 20 21 21 23 22 22 23 23 23 22 21 22 23 25 24 25 23 22 22
9 10 10 10 10 11 12 12 12 12 13 13 13 12 12 15 17 18 18 17 16 17 18 19 20 20 21 19 21 21 20 21 22 22 21 22 20 21 22 23 23 24 23 23 23
9 9 9 10 10 10 11 12 12 12 12 13 13 12 12 14 16 17 18 17 17 18 18 19 20 19 19 20 20 20 19 18 21 22 22 21 19 22 23 22 22 24 24 23 23
9 9 10 9 10 10 11 11 12 12 12 12 12 12 13 15 14 15 17 17 18 17 18 18 18 17 18 17 17 18 18 19 20 22 23 20 19 22 23 23 22 22 23 24 23
8 9 9 9 9 10 10 11 11 11 11 11 12 12 14 15 15 14 16 17 16 17 15 16 15 15 16 17 16 17 18 19 20 22 21 19 19 21 22 22 21 21 22 23 23
8 8 8 9 9 9 10 9 9 10 10 11 12 13 16 15 16 15 15 16 15 15 14 15 14 14 16 17 18 19 19 20 21 22 20 19 19 20 22 21 21 21 21 22 23
7 7 8 8 9 9 9 10 12 12 11 11 13 13 16 16 15 15 15 14 14 14 15 14 14 16 18 18 18 18 18 19 20 20 19 18 18 19 21 21 21 21 21 22 22
7 7 8 8 8 8 8 9 11 11 10 10 11 13 14 15 15 14 14 14 14 14 15 14 16 17 17 17 17 18 18 18 18 20 19 17 17 18 20 21 22 22 22 22 22
7 7 7 8 7 8 8 9 10 9 10 9 11 12 14 14 13 16 14 15 14 14 15 14 16 17 16 17 17 16 18 18 18 17 15 19 16 18 19 20 21 22 21 20 21
6 6 7 7 8 8 9 9 9 8 11 12 10 12 14 13 15 14 15 14 13 14 14 13 14 15 16 16 17 17 19 17 18 16 15 16 14 17 20 19 19 21 21 20 21
6 6 7 6 7 8 9 9 8 8 10 10 9 10 12 13 14 13 13 12 15 13 12 13 12 13 14 17 17 18 16 16 15 14 14 16 15 17 18 20 21 22 22 23 19
6 6 6 6 7 8 8 7 8 9 8 8 10 11 12 12 13 12 12 12 12 12 12 12 11 12 12 14 15 14 14 14 14 14 14 17 16 18 20 20 21 21 21 21 18
6 6 6 6 7 7 7 6 8 9 9 10 10 12 11 13 12 12 12 12 13 14 14 12 12 12 12 13 14 14 14 14 14 14 15 15 15 18 21 21 21 21 20 19 18
6 6 5 5 6 7 7 7 8 11 9 10 11 10 10 12 11 12 12 12 13 13 13 12 13 12 12 12 13 12 13 14 12 10 12 14 17 19 19 19 19 19 19 16 17
5 5 4 4 5 5 7 8 8 11 12 11 10 11 11 11 12 12 11 13 13 14 16 13 12 12 13 13 13 13 12 12 12 13 13 16 17 17 18 17 17 16 16 17 18
5 4 5 5 5 4 7 7 6 10 12 11 10 9 10 11 12 12 13 14 14 13 16 15 14 11 11 12 12 12 13 12 13 13 13 14 16 19 18 17 16 17 18 17 17
4 4 7 5 5 4 6 6 10 7 9 10 11 11 11 12 13 12 14 15 15 14 13 15 14 11 12 10 11 12 14 15 13 13 11 12 14 19 17 16 17 17 17 17 16
3 5 6 6 5 5 5 7 10 8 7 8 9 12 13 13 12 14 14 16 16 15 14 14 11 11 11 10 11 12 14 15 15 12 13 13 14 17 16 16 17 17 16 16 16
3 5 5 5 6 6 6 7 8 10 9 8 9 13 13 13 13 13 14 15 15 16 14 14 12 13 14 13 13 12 13 13 13 12 14 14 16 17 17 17 17 16 16 16 15
3 5 4 5 5 6 6 6 8 8 9 8 8 11 13 11 12 13 14 12 13 14 13 14 12 13 14 13 12 12 12 12 12 12 13 14 14 16 18 17 16 16 16 15 11
4 5 5 6 6 6 7 7 7 7 9 8 8 10 13 12 13 12 13 12 13 13 13 13 11 13 10 13 13 13 13 12 12 13 13 14 15 17 16 17 14 13 12 10 8
6 8 7 6 6 6 7 7 8 8 9 11 11 11 12 13 14 14 13 12 13 13 13 11 10 10 10 11 10 8 10 13 13 14 14 13 15 16 14 12 10 8 7 7 6
Height
801 803 805 807 810 812 815 817 818 821 822 824 826 827 828 829 829 829 829 828 828 828 828 827 824 824 823 821 820 818 835 837 828 822 816 808 815 808 807 812 808 807 810 815 819
797 800 802 804 807 810 812 815 817 819 821 822 825 826 827 829 828 825 825 826 827 828 830 829 825 824 824 821 821 826 834 828 811 812 819 815 815 816 814 811 811 810 810 815 820
793 796 799 801 804 807 809 812 815 817 819 822 824 826 827 829 827 817 820 823 825 828 830 830 829 827 828 823 822 822 834 818 811 809 814 819 819 811 820 819 811 810 809 813 817
788 791 793 796 800 803 806 809 812 816 818 820 823 826 827 828 832 811 811 816 821 826 830 829 828 831 831 830 820 830 819 816 813 812 818 823 816 818 816 817 808 807 808 811 814
783 786 789 792 795 799 803 807 810 813 817 819 822 824 827 825 816 813 813 816 820 824 827 828 829 829 832 824 821 823 821 817 811 814 817 819 822 821 816 809 808 806 808 809 810
778 781 785 788 791 795 800 803 806 810 814 817 820 823 824 817 810 814 815 817 819 823 825 826 826 824 827 825 823 814 818 817 813 815 815 820 820 818 810 804 806 805 807 807 807
774 777 780 784 787 792 796 800 803 808 811 815 818 821 820 806 810 811 812 815 818 822 823 824 825 826 823 827 818 817 827 823 818 817 819 814 821 818 807 804 805 803 804 802 802
768 772 776 780 784 788 792 796 800 804 809 813 817 820 812 808 808 811 810 814 818 821 822 822 822 824 827 822 821 825 829 838 817 812 811 818 826 810 797 800 803 800 797 796 796
763 767 772 776 781 785 789 793 797 801 804 811 815 817 809 804 805 810 810 812 816 820 822 822 824 828 826 831 835 829 837 826 819 805 808 817 820 805 796 797 802 800 794 791 791
758 763 767 772 777 781 786 791 795 799 802 807 810 816 803 797 802 807 810 811 816 819 825 826 829 832 828 829 835 835 829 823 822 812 812 818 817 809 802 799 801 799 795 791 789
753 757 762 768 773 778 785 791 797 796 791 786 790 788 784 794 799 803 808 810 814 820 825 827 834 825 822 827 822 822 819 816 808 800 814 817 815 810 801 797 798 796 794 791 788
747 752 758 763 769 774 780 779 777 782 782 784 787 790 788 791 795 799 806 812 814 818 821 827 822 811 818 817 821 821 820 817 810 807 817 822 818 809 801 796 794 792 789 786 783
741 747 752 759 766 771 772 772 781 781 783 782 782 785 787 792 788 793 800 803 808 814 814 819 803 815 817 819 821 818 818 817 820 809 813 823 818 808 795 787 783 779 778 779 779
735 741 747 755 767 765 766 774 779 784 776 777 777 778 781 789 789 785 790 797 805 807 811 815 805 807 814 812 814 820 810 815 819 825 838 815 828 803 795 787 781 774 773 775 774
729 735 741 749 754 758 766 772 777 784 761 753 767 773 773 780 774 781 784 795 797 800 809 813 808 808 810 802 812 809 807 814 817 825 832 828 841 793 784 788 786 775 771 771 769
723 728 736 743 749 754 763 767 777 776 748 752 756 762 767 772 773 779 786 794 792 801 806 807 814 812 805 803 805 806 816 817 822 831 836 807 830 794 789 781 775 768 766 766 768
718 723 730 736 738 752 759 764 763 748 752 754 744 749 755 761 772 776 780 783 787 801 804 810 816 814 812 813 809 816 821 830 829 828 820 801 819 785 769 768 768 769 769 768 770
713 719 724 731 739 746 753 757 732 726 740 741 742 746 747 751 764 771 777 779 783 783 791 801 807 805 810 807 807 815 820 816 817 815 809 805 808 785 763 761 762 765 767 769 771
710 716 721 726 733 739 737 728 723 707 730 735 740 744 746 749 753 764 767 768 773 778 784 797 798 797 801 803 810 818 815 812 816 828 815 801 782 768 765 767 768 768 771 778 775
705 711 715 722 728 731 727 716 722 712 710 728 727 724 734 744 746 756 763 761 764 767 767 782 795 796 796 801 806 808 810 819 805 805 811 792 786 786 774 776 776 777 779 779 775
702 703 706 717 726 724 708 713 723 712 708 717 723 729 731 729 729 741 742 745 755 765 766 771 778 799 797 797 796 805 802 808 800 803 804 805 792 760 768 772 778 777 778 779 777
693 699 698 710 717 716 711 711 704 720 719 714 715 718 723 723 726 735 733 733 742 754 764 764 771 792 791 801 798 791 791 789 803 804 809 809 800 759 768 773 771 775 779 778 777
689 695 697 702 708 710 712 705 700 711 723 726 722 713 708 715 728 727 729 730 732 743 752 760 781 789 796 802 798 793 786 783 784 799 797 804 791 765 770 772 769 771 777 779 775
687 686 692 699 700 704 702 700 703 699 711 721 719 708 707 713 719 725 729 730 732 739 749 753 767 768 770 775 780 790 787 789 792 799 786 785 783 773 772 771 770 772 774 775 775
674 674 677 688 701 705 705 701 699 703 707 713 720 704 701 719 720 721 725 736 737 741 751 754 769 766 764 770 776 776 781 784 790 786 790 782 785 774 765 768 769 768 772 776 783
664 666 671 673 683 690 699 701 706 707 703 710 715 709 699 705 697 709 716 726 729 740 746 752 770 764 783 770 774 773 773 777 780 781 785 773 768 761 761 761 771 776 779 784 788
652 653 656 669 684 696 691 692 694 700 699 688 689 704 703 701 704 710 718 725 729 735 744 758 768 777 782 777 785 801 777 768 770 770 770 777 762 764 770 776 787 791 793 797 797
Wind_Speed
23 20 23 23 22 20 20 18 16 17 15 13 12 12 12 11 11 10 11 10 4 11 13 13 10 8 9 5 2 3 3 4 8 9 6 6 5 5 2 4 0 6 3 7 20
20 21 20 21 24 23 21 21 18 16 16 14 12 11 12 11 12 20 15 18 14 12 8 11 10 12 5 3 2 3 4 8 8 4 6 9 4 9 2 4 5 5 11 16 15
21 21 22 20 20 25 23 22 20 16 16 15 13 10 11 8 10 15 21 22 19 15 8 8 10 10 8 9 6 3 8 11 12 7 8 6 7 4 7 5 5 1 8 13 16
25 23 24 24 23 21 24 23 22 19 15 15 13 11 10 8 8 4 11 27 24 18 9 10 6 9 6 7 9 11 10 9 10 5 3 6 7 5 7 9 4 3 4 13 11
25 24 24 24 24 23 22 25 22 20 17 16 14 11 7 10 12 5 2 13 16 16 14 10 10 9 12 8 11 14 8 15 9 6 1 8 8 8 9 9 9 4 1 5 9
25 25 24 25 23 24 24 22 24 21 18 16 15 14 9 21 10 20 3 1 11 13 17 15 9 10 7 10 11 5 5 11 11 6 5 9 9 8 8 7 6 7 7 8 9
25 25 25 25 25 22 23 23 24 22 18 17 16 15 11 15 6 14 18 7 8 14 15 17 16 4 3 7 10 2 8 10 8 7 8 6 9 10 12 12 10 8 9 9 10
24 22 22 25 26 25 23 23 22 23 20 18 16 14 10 11 29 13 13 13 8 8 15 11 11 8 11 8 4 4 8 10 9 12 7 7 12 11 12 12 10 12 11 9 11
26 24 22 23 26 24 23 19 22 23 22 18 11 12 12 12 15 13 13 17 15 11 6 3 3 4 6 11 7 8 7 12 12 14 5 9 6 8 7 3 9 9 9 8 9
25 27 25 24 24 23 20 21 18 19 22 16 15 9 13 12 9 20 16 13 9 11 4 4 5 5 7 9 14 9 13 12 14 2 3 9 12 9 11 8 8 8 9 9 8
26 27 27 26 25 23 18 8 4 6 15 8 8 11 2 22 23 19 20 13 12 10 10 6 6 18 17 13 13 14 14 11 9 3 2 6 11 10 12 10 9 8 9 9 9
26 27 27 26 25 24 22 10 16 1 5 21 11 23 21 25 11 13 23 11 11 14 15 7 19 21 8 15 16 17 17 18 10 7 2 7 14 13 15 14 11 11 11 11 10
27 27 28 26 24 23 24 29 21 13 3 9 16 14 22 14 14 17 20 11 11 17 16 15 14 14 14 16 16 18 17 14 13 7 2 5 15 13 14 21 22 21 18 13 13
29 29 29 28 20 22 24 23 18 12 6 9 15 10 14 13 11 17 29 12 7 19 17 14 18 13 18 19 17 17 10 9 10 3 6 3 10 8 8 14 14 6 7 9 9
27 27 30 32 13 24 9 21 15 8 16 12 12 11 10 19 10 16 33 14 16 10 7 7 9 21 16 25 10 16 5 8 12 10 4 12 5 8 3 10 10 10 9 8 8
27 30 31 30 29 24 27 19 13 8 10 13 11 15 19 24 11 7 12 3 5 7 4 7 2 4 11 10 10 2 7 7 5 4 8 23 8 21 12 12 12 8 5 1 8
27 28 31 31 25 27 28 10 11 18 4 5 15 22 26 19 22 11 16 12 11 12 11 8 5 1 2 2 3 7 8 4 6 6 11 10 10 18 10 9 4 5 6 5 7
25 26 27 29 28 31 30 11 13 22 9 4 11 22 26 22 19 16 18 15 16 15 9 12 10 16 9 5 7 12 13 5 5 5 6 7 9 8 2 3 2 1 4 6 8
23 23 18 25 26 32 10 14 12 11 11 9 19 19 18 17 12 14 13 22 18 15 10 10 9 3 14 7 10 2 10 5 1 1 2 5 6 5 8 6 3 2 7 9 8
24 16 18 28 31 19 13 16 6 7 18 12 14 16 20 24 18 20 20 20 14 26 11 10 5 6 7 7 9 6 9 4 2 5 3 4 5 4 6 9 8 9 9 6 4
20 5 13 29 25 4 8 11 3 9 11 17 11 7 7 21 23 25 24 13 23 18 18 9 4 4 4 7 8 6 4 7 6 3 1 1 4 4 7 14 10 8 5 6 7
7 4 22 33 8 3 4 6 13 7 3 9 3 8 11 24 18 17 18 14 26 23 22 10 3 4 9 2 4 5 4 8 3 4 2 3 5 6 10 9 9 7 6 5 6
4 4 28 25 7 6 5 7 13 11 10 5 6 13 8 15 11 16 17 19 21 21 21 12 4 4 4 2 3 5 9 11 6 2 6 4 4 4 8 7 7 7 6 5 4
5 6 5 6 5 7 7 4 6 14 13 10 5 15 13 12 3 12 12 10 9 17 10 15 4 5 8 4 7 6 10 8 5 3 2 8 6 1 7 8 3 7 6 4 5
4 4 5 10 10 10 4 4 9 7 6 7 1 8 16 7 4 7 12 4 3 12 6 9 6 5 5 7 6 9 13 14 13 10 6 16 19 14 7 4 4 2 2 7 12
7 5 5 11 16 23 13 4 16 4 11 11 7 10 15 14 13 20 11 12 13 13 15 6 1 6 2 1 6 6 16 18 22 22 14 18 18 5 7 4 10 10 12 12 12
11 6 6 12 13 13 14 17 13 13 10 15 22 16 17 11 2 10 8 7 6 13 15 7 5 5 6 6 6 5 11 13 14 18 15 17 20 5 5 10 11 11 13 12 13
Wind_Direction
258 255 250 252 253 257 256 256 254 251 254 258 257 251 255 269 278 267 249 246 251 277 289 319 303 284 301 272 219 287 267 255 265 303 355 118 0 114 108 289 35 134 51 90 131
254 254 254 253 251 254 258 256 256 252 249 253 257 256 252 264 271 259 250 253 270 276 316 297 305 327 299 245 286 239 256 254 271 18 355 344 21 320 304 240 236 183 115 127 136
259 261 257 256 257 252 253 254 253 253 246 246 248 252 245 259 281 258 245 242 247 252 266 294 300 288 282 281 260 244 245 274 291 39 35 330 312 294 322 271 301 13 162 149 148
254 257 263 260 258 258 251 251 251 249 247 240 238 242 235 209 233 37 227 221 230 239 241 261 274 268 266 257 259 263 270 282 290 58 32 293 324 307 277 264 313 32 54 163 152
251 255 255 258 257 253 255 247 245 246 243 237 230 227 199 227 231 68 33 205 217 212 218 235 247 264 255 268 250 258 252 281 291 320 293 280 282 265 284 295 292 255 40 220 169
250 252 253 248 252 251 251 250 244 245 240 241 230 224 229 238 246 230 252 87 196 210 222 229 237 258 302 280 277 273 301 265 266 249 267 268 265 286 261 278 250 253 220 225 189
247 248 250 248 247 246 244 247 241 241 238 234 230 226 240 234 249 241 209 164 201 208 226 227 239 253 247 290 307 281 291 275 258 246 240 299 276 248 246 249 256 246 218 238 201
241 244 247 246 244 246 246 242 242 234 235 225 228 222 247 239 237 270 204 192 193 222 230 252 223 256 257 276 282 260 245 264 247 244 210 135 263 297 285 217 238 253 246 221 203
243 245 245 246 241 241 241 240 241 236 228 218 209 209 251 215 237 230 213 191 197 203 223 220 187 228 238 230 245 226 248 240 247 243 211 175 266 297 334 259 234 266 278 245 232
238 245 245 243 240 236 237 236 242 240 225 209 213 187 251 214 193 202 207 192 178 173 126 196 197 229 218 210 225 229 229 235 256 197 194 273 260 261 271 252 259 267 277 283 283
238 244 242 240 235 232 226 213 202 230 213 176 178 217 288 196 194 189 202 209 196 189 198 195 206 223 218 219 243 265 270 263 266 276 210 236 266 272 281 275 267 257 238 248 265
233 231 231 230 229 227 219 216 206 14 209 201 220 217 240 180 182 190 188 198 191 209 204 188 224 227 231 229 233 247 256 263 278 121 131 282 274 276 282 281 266 260 258 253 252
226 228 227 226 226 224 217 228 227 239 253 199 209 220 212 212 210 195 185 187 191 213 208 213 232 218 225 234 240 244 241 253 269 291 244 295 275 265 252 248 253 247 246 249 253
226 223 221 219 218 215 227 225 226 232 246 177 202 220 207 218 232 203 188 177 205 214 211 226 239 238 215 231 219 242 230 254 269 315 264 215 287 225 297 292 286 279 236 225 249
224 222 218 208 195 198 201 209 202 172 242 172 179 178 196 189 125 205 181 211 202 187 177 198 232 217 233 225 221 254 225 228 247 254 267 253 272 261 288 272 269 267 231 244 251
226 220 215 210 208 209 197 175 154 206 225 170 141 174 176 194 204 122 169 160 184 179 230 226 60 290 255 233 226 266 254 261 255 228 237 241 198 277 256 253 252 250 175 155 68
223 220 211 205 208 199 185 169 213 217 120 189 175 173 186 186 198 178 179 190 172 187 195 176 180 232 25 170 279 235 182 226 205 187 235 173 193 237 296 288 292 274 280 45 73
216 212 210 205 197 188 180 199 224 198 195 156 170 187 187 171 196 185 191 196 202 196 185 208 211 198 156 223 201 211 223 213 226 189 224 139 224 229 95 236 194 2 42 65 61
207 202 200 207 189 191 195 209 219 195 142 177 167 180 191 188 161 185 201 194 199 188 173 184 220 127 174 153 152 185 207 254 160 310 88 197 243 282 248 265 34 357 63 77 66
195 191 200 207 206 210 218 207 186 238 163 171 185 180 183 181 173 187 187 195 190 204 193 181 178 185 159 168 191 178 151 205 247 138 204 229 222 227 161 130 89 84 95 101 110
185 179 199 191 194 223 214 187 202 216 161 167 203 170 196 177 182 188 187 176 193 199 204 179 178 154 139 202 179 186 183 207 182 211 297 81 249 94 83 125 122 119 116 51 30
167 179 163 163 198 173 228 171 188 189 283 223 334 163 182 180 185 189 188 192 185 176 194 207 166 166 188 23 307 283 222 196 190 225 275 101 268 86 117 119 123 110 80 23 32
188 152 157 163 199 208 158 189 190 156 184 189 216 231 201 170 190 182 197 190 171 172 186 172 175 130 176 338 284 230 221 232 204 42 194 143 281 82 127 136 161 123 69 42 6
157 166 160 179 186 193 237 155 168 171 167 171 244 216 177 171 153 176 181 161 156 185 165 148 149 198 210 176 143 199 206 212 165 165 180 217 259 115 185 186 70 63 56 352 27
180 180 175 172 187 194 194 179 169 170 177 160 220 229 170 153 151 147 162 88 79 168 146 169 201 204 236 117 186 193 196 196 209 216 186 234 240 245 253 3 73 27 122 49 44
171 170 196 174 181 184 187 201 195 178 166 180 183 215 180 178 182 174 159 166 172 168 173 181 219 171 297 179 246 234 198 197 204 220 234 256 265 246 320 64 40 28 45 31 21
226 136 152 153 177 180 201 197 203 182 227 196 188 171 200 198 140 168 104 94 129 174 182 166 148 154 201 128 68 308 229 211 222 229 221 241 257 297 356 49 33 48 46 28 7